Time,TemperatureF,DewpointF,PressureIn,WindDirection,WindDirectionDegrees,WindSpeedMPH,WindSpeedGustMPH,Humidity,HourlyPrecipIn,Conditions,Clouds,dailyrainin,SoftwareType,DateUTC
2013-03-23 00:02:00,54.0,-99.9,-100.00,South,172,3.0,7.0,-999,-99.99,,,-99.99,,2013-03-23 05:02:00,
2013-03-23 01:10:00,54.0,-99.9,-100.00,East,79,2.0,2.0,-999,-99.99,,,-99.99,,2013-03-23 06:10:00,
2013-03-23 01:40:00,50.0,-99.9,-100.00,SSE,157,0.0,5.0,-999,-99.99,,,-99.99,,2013-03-23 06:40:00,
2013-03-23 01:52:00,54.0,-99.9,-100.00,East,79,2.0,2.0,-999,-99.99,,,-99.99,,2013-03-23 06:52:00,
2013-03-23 02:03:00,54.0,-99.9,-100.00,East,79,2.0,2.0,-999,-99.99,,,-99.99,,2013-03-23 07:03:00,
2013-03-23 02:23:00,50.0,-99.9,-100.00,SSE,157,0.0,5.0,-999,-99.99,,,-99.99,,2013-03-23 07:23:00,
2013-03-23 02:33:00,50.0,-99.9,-100.00,SSE,157,0.0,5.0,-999,-99.99,,,-99.99,,2013-03-23 07:33:00,
2013-03-23 03:10:00,49.0,-99.9,-100.00,SE,134,0.0,3.0,-999,-99.99,,,-99.99,,2013-03-23 08:10:00,
2013-03-23 03:32:00,51.0,-99.9,-100.00,SE,134,3.0,4.0,-999,-99.99,,,-99.99,,2013-03-23 08:32:00,
2013-03-23 03:42:00,51.0,-99.9,-100.00,SE,134,3.0,4.0,-999,-99.99,,,-99.99,,2013-03-23 08:42:00,
2013-03-23 03:53:00,49.0,-99.9,-100.00,SE,134,0.0,3.0,-999,-99.99,,,-99.99,,2013-03-23 08:53:00,
2013-03-23 04:02:00,49.0,-99.9,-100.00,SE,134,0.0,3.0,-999,-99.99,,,-99.99,,2013-03-23 09:02:00,
2013-03-23 04:10:00,51.0,-99.9,-100.00,SW,217,2.0,7.0,-999,-99.99,,,-99.99,,2013-03-23 09:10:00,
2013-03-23 04:53:00,51.0,-99.9,-100.00,SW,217,2.0,7.0,-999,-99.99,,,-99.99,,2013-03-23 09:53:00,
2013-03-23 05:03:00,51.0,-99.9,-100.00,SW,217,2.0,7.0,-999,-99.99,,,-99.99,,2013-03-23 10:03:00,
2013-03-23 05:10:00,52.0,-99.9,-100.00,SSW,193,6.0,6.0,-999,-99.99,,,-99.99,,2013-03-23 10:10:00,
2013-03-23 05:53:00,52.0,-99.9,-100.00,SSW,193,6.0,6.0,-999,-99.99,,,-99.99,,2013-03-23 10:53:00,
2013-03-23 06:04:00,52.0,-99.9,-100.00,SSW,193,6.0,6.0,-999,-99.99,,,-99.99,,2013-03-23 11:04:00,
2013-03-23 07:53:00,54.0,-99.9,-100.00,SE,124,3.0,3.0,-999,-99.99,,,-99.99,,2013-03-23 12:53:00,
2013-03-23 08:03:00,51.0,-99.9,-100.00,South,171,1.0,4.0,-999,-99.99,,,-99.99,,2013-03-23 13:03:00,
2013-03-23 08:12:00,51.0,-99.9,-100.00,South,171,1.0,4.0,-999,-99.99,,,-99.99,,2013-03-23 13:12:00,
2013-03-23 08:23:00,51.0,-99.9,-100.00,South,171,1.0,4.0,-999,-99.99,,,-99.99,,2013-03-23 13:23:00,
2013-03-23 10:04:00,62.0,-99.9,-100.00,SSW,200,1.0,5.0,-999,-99.99,,,-99.99,,2013-03-23 15:04:00,
2013-03-23 10:13:00,62.0,-99.9,-100.00,SSW,200,1.0,5.0,-999,-99.99,,,-99.99,,2013-03-23 15:13:00,
2013-03-23 10:23:00,62.0,-99.9,-100.00,SSW,200,1.0,5.0,-999,-99.99,,,-99.99,,2013-03-23 15:23:00,
2013-03-23 12:00:00,69.0,-99.9,-100.00,West,269,14.0,29.0,-999,-99.99,,,-99.99,,2013-03-23 17:00:00,
2013-03-23 12:03:00,65.0,-99.9,-100.00,West,264,15.0,23.0,-999,-99.99,,,-99.99,,2013-03-23 17:03:00,
2013-03-23 12:12:00,65.0,-99.9,-100.00,West,264,15.0,23.0,-999,-99.99,,,-99.99,,2013-03-23 17:12:00,
2013-03-23 12:23:00,65.0,-99.9,-100.00,West,264,15.0,23.0,-999,-99.99,,,-99.99,,2013-03-23 17:23:00,
2013-03-23 12:33:00,69.0,-99.9,-100.00,West,269,14.0,29.0,-999,-99.99,,,-99.99,,2013-03-23 17:33:00,
2013-03-23 12:43:00,69.0,-99.9,-100.00,West,269,14.0,29.0,-999,-99.99,,,-99.99,,2013-03-23 17:43:00,
2013-03-23 12:53:00,69.0,-99.9,-100.00,West,269,14.0,29.0,-999,-99.99,,,-99.99,,2013-03-23 17:53:00,
2013-03-23 14:03:00,70.0,-99.9,-100.00,WSW,255,25.0,27.0,-999,-99.99,,,-99.99,,2013-03-23 19:03:00,
2013-03-23 14:13:00,70.0,-99.9,-100.00,WSW,255,25.0,27.0,-999,-99.99,,,-99.99,,2013-03-23 19:13:00,
2013-03-23 16:03:00,69.0,-99.9,-100.00,WNW,285,23.0,39.0,-999,-99.99,,,-99.99,,2013-03-23 21:03:00,
2013-03-23 16:12:00,69.0,-99.9,-100.00,WNW,285,23.0,39.0,-999,-99.99,,,-99.99,,2013-03-23 21:12:00,
2013-03-23 18:03:00,69.0,-99.9,-100.00,West,261,27.0,28.0,-999,-99.99,,,-99.99,,2013-03-23 23:03:00,
2013-03-23 18:13:00,69.0,-99.9,-100.00,West,261,27.0,28.0,-999,-99.99,,,-99.99,,2013-03-23 23:13:00,
2013-03-23 18:53:00,71.0,-99.9,-100.00,West,261,16.0,33.0,-999,-99.99,,,-99.99,,2013-03-23 23:53:00,
2013-03-23 19:02:00,71.0,-99.9,-100.00,West,261,16.0,33.0,-999,-99.99,,,-99.99,,2013-03-24 00:02:00,
2013-03-23 20:53:00,65.0,-99.9,-100.00,West,274,15.0,21.0,-999,-99.99,,,-99.99,,2013-03-24 01:53:00,
2013-03-23 21:03:00,65.0,-99.9,-100.00,West,274,15.0,21.0,-999,-99.99,,,-99.99,,2013-03-24 02:03:00,
2013-03-23 22:30:00,62.0,-99.9,-100.00,West,264,5.0,13.0,-999,-99.99,,,-99.99,,2013-03-24 03:30:00,
2013-03-23 22:53:00,63.0,-99.9,-100.00,WNW,282,14.0,17.0,-999,-99.99,,,-99.99,,2013-03-24 03:53:00,
2013-03-23 23:03:00,63.0,-99.9,-100.00,WNW,282,14.0,17.0,-999,-99.99,,,-99.99,,2013-03-24 04:03:00,
2013-03-23 23:23:00,62.0,-99.9,-100.00,West,264,5.0,13.0,-999,-99.99,,,-99.99,,2013-03-24 04:23:00,